1496840400.24,14690,19.06,73846.3,6.81,2.13,2.25,0,*7D
1496840401.47,14691,19.06,73846.0,6.83,1.93,2.01,0,*73
1496840402.65,14692,19.06,73848.8,6.79,1.75,1.79,0,*71
1496840403.86,14693,19.06,73848.0,6.81,1.41,1.43,0,*79
1496840405.11,14694,19.06,73850.5,6.81,1.51,1.55,0,*78
1496840406.35,14695,19.06,73846.5,6.81,1.51,1.55,0,*79
1496840407.57,14696,19.06,73846.5,6.79,1.67,1.67,0,*79
1496840408.79,14697,19.06,73846.3,6.79,1.51,1.63,0,*79
1496840409.97,14698,19.06,73848.0,6.75,1.75,1.83,0,*72
1496840411.19,14699,19.06,73850.0,6.79,1.51,1.51,0,*76
1496840412.42,14700,19.06,73848.8,6.75,1.25,1.21,0,*7F
1496840413.62,14701,19.06,73852.0,6.79,1.41,1.37,0,*77
1496840414.87,14702,19.06,73850.5,6.73,1.25,1.25,0,*7F
1496840416.07,14703,19.06,73850.3,6.71,1.09,0.97,0,*4A
1496840417.33,14704,19.06,73848.3,6.73,1.25,1.21,0,*7D
1496840418.56,14705,19.06,73850.0,6.71,1.21,1.29,0,*72
1496840419.78,14706,19.06,73848.0,6.71,1.47,1.47,0,*79
1496840421.03,14707,19.06,73850.0,6.73,1.51,1.51,0,*7A
1496840422.25,14708,19.06,73848.3,6.71,1.47,1.43,0,*73
1496840423.43,14709,19.06,73850.8,6.71,1.79,1.79,0,*76
1496840424.63,14710,19.06,73852.8,6.71,1.83,1.89,0,*74
1496840425.86,14711,19.06,73850.0,6.71,2.01,2.05,0,*7B
1496840427.09,14712,19.06,73850.0,6.71,2.17,2.25,0,*7D
1496840428.32,14713,19.06,73850.0,6.71,2.13,2.17,0,*79
1496840429.52,14714,19.06,73850.0,6.73,2.31,2.31,0,*78
1496840430.75,14715,19.06,73852.5,6.73,2.17,2.27,0,*7A
1496840431.98,14716,19.06,73850.5,6.71,2.39,2.51,0,*76
1496840433.24,14717,19.06,73854.3,6.73,2.09,2.09,0,*7B
1496840434.49,14718,19.06,73850.8,6.73,2.09,2.09,0,*74
1496840435.72,14719,19.06,73848.3,6.73,2.35,2.43,0,*74
1496840436.97,14720,19.06,73848.3,6.73,2.59,2.55,0,*73
1496840438.19,14721,19.06,73850.0,6.79,2.55,2.59,0,*78
1496840439.42,14722,19.06,73850.3,6.75,2.59,2.59,0,*7B
1496840440.65,14723,19.06,73850.5,6.79,2.39,2.51,0,*78
1496840441.82,14724,19.06,73850.5,6.79,2.35,2.35,0,*71
1496840443.03,14725,19.06,73848.5,6.81,2.65,2.61,0,*73
1496840444.27,14726,19.06,73848.5,6.81,2.73,2.77,0,*70
1496840445.5,14727,19.06,73850.5,6.81,2.77,2.65,0,*76
1496840446.72,14728,19.06,73848.5,6.81,2.55,2.65,0,*79
1496840447.93,14729,19.06,73850.5,6.83,2.27,2.43,0,*7B
1496840449.13,14730,19.06,73850.0,6.81,2.61,2.65,0,*77
1496840450.36,14731,19.06,73850.5,6.83,2.43,2.39,0,*7D
1496840451.55,14732,19.06,73848.5,6.83,2.61,2.61,0,*73
1496840452.77,14733,19.06,73850.5,6.85,2.21,2.17,0,*71
1496840454.01,14734,19.06,73850.5,6.83,2.01,2.17,0,*72
1496840455.22,14735,19.06,73848.8,6.83,2.51,2.61,0,*77
1496840456.45,14736,19.06,73850.0,6.83,2.05,2.17,0,*74
1496840457.68,14737,19.06,73850.8,6.83,2.13,2.13,0,*76
1496840458.89,14738,19.06,73850.5,6.83,2.27,2.43,0,*7B
1496840460.09,14739,19.06,73850.0,6.85,2.27,2.43,0,*7C
1496840461.3,14740,19.06,73848.5,6.85,2.55,2.65,0,*73
1496840462.53,14741,19.06,73850.0,6.87,2.55,2.65,0,*70
1496840463.78,14742,19.06,73848.0,6.87,2.47,2.69,0,*7C
1496840465.0,14743,19.06,73850.0,6.87,2.21,2.31,0,*70
1496840466.25,14744,19.06,73848.0,6.87,2.05,2.21,0,*70
1496840467.47,14745,19.06,73848.8,6.87,2.09,2.27,0,*7B
1496840468.68,14746,19.06,73854.0,6.85,2.27,2.43,0,*74
1496840469.9,14747,19.06,73850.0,6.87,2.21,2.27,0,*73
1496840471.13,14748,19.06,73848.3,6.85,1.97,2.21,0,*76
1496840472.38,14749,19.06,73844.8,6.87,2.21,2.47,0,*7B
1496840473.6,14750,19.06,73848.5,6.87,2.31,2.47,0,*72
1496840474.86,14751,19.06,73848.3,6.87,2.39,2.59,0,*74
1496840476.09,14752,19.06,73850.5,6.87,2.31,2.47,0,*70
1496840477.34,14753,19.06,73850.8,6.87,2.21,2.39,0,*79
1496840478.58,14754,19.06,73850.5,6.89,1.85,2.09,0,*7E
1496840479.81,14755,19.06,73850.3,6.89,2.25,2.43,0,*78
1496840481.07,14756,19.06,73850.8,6.87,2.17,2.39,0,*79
1496840482.3,14757,19.06,73846.8,6.89,2.09,2.13,0,*71
1496840483.56,14758,19.06,73850.0,6.87,1.97,2.05,0,*73
1496840484.79,14759,19.06,73846.8,6.87,1.71,1.83,0,*77
1496840486.01,14760,19.06,73852.0,6.85,1.93,2.05,0,*7E
1496840487.24,14761,19.06,73850.5,6.85,1.93,1.93,0,*73
1496840488.49,14762,19.06,73850.8,6.87,1.97,1.97,0,*72
1496840489.71,14763,19.06,73850.5,6.87,1.83,1.93,0,*72
1496840490.92,14764,19.06,73854.5,6.87,1.75,1.83,0,*7D
1496840492.09,14765,19.06,73848.0,6.85,1.83,1.75,0,*7E
1496840493.35,14766,19.06,73850.8,6.87,1.63,1.55,0,*73
1496840494.58,14767,19.06,73852.3,6.85,1.85,1.85,0,*75
1496840495.83,14768,19.06,73848.0,6.87,1.93,1.85,0,*7F
1496840497.06,14769,19.06,73850.0,6.85,1.55,1.47,0,*78
1496840498.26,14770,19.06,73848.0,6.83,1.55,1.41,0,*70
1496840499.48,14771,19.06,73848.0,6.85,1.59,1.55,0,*7E
1496840500.7,14772,19.06,73850.3,6.85,1.47,1.55,0,*72
1496840501.9,14773,19.06,73848.3,6.83,1.79,1.89,0,*79
1496840503.09,14774,19.06,73848.3,6.83,1.51,1.41,0,*70
1496840504.33,14775,19.06,73848.3,6.83,1.09,1.17,0,*7F
1496840505.56,14776,19.06,73850.0,6.83,1.33,1.43,0,*74
1496840506.76,14777,19.06,73846.5,6.83,1.41,1.55,0,*77
1496840507.99,14778,19.06,73848.0,6.83,1.17,1.29,0,*70
1496840509.21,14779,19.06,73850.5,6.83,1.51,1.67,0,*79
1496840510.38,14780,19.06,73848.3,6.85,1.41,1.41,0,*7C
1496840511.6,14781,19.06,73852.8,6.83,1.47,1.43,0,*7F
1496840512.82,14782,19.06,73848.8,6.83,1.67,1.59,0,*75
1496840514.07,14783,19.06,73850.8,6.81,1.51,1.33,0,*7F
1496840515.29,14784,19.06,73848.3,6.83,1.71,1.71,0,*7E
1496840516.52,14785,19.06,73850.3,6.83,1.71,1.67,0,*78
1496840517.77,14786,19.06,73846.5,6.87,1.47,1.43,0,*7C
1496840519.03,14787,19.06,73850.0,6.87,1.33,1.13,0,*7B
1496840520.23,14788,19.06,73848.8,6.85,1.09,0.97,0,*42
1496840521.46,14789,19.06,73850.5,6.85,1.33,1.21,0,*76
1496840522.7,14790,19.06,73848.0,6.85,1.37,1.21,0,*7A
1496840523.93,14791,19.06,73846.8,6.85,1.43,1.33,0,*7B
1496840525.16,14792,19.06,73848.8,6.85,1.33,1.13,0,*7D
1496840526.39,14793,19.06,73848.8,6.85,1.33,1.13,0,*7C
1496840527.63,14794,19.06,73846.5,6.85,1.33,1.21,0,*7A
1496840528.87,14795,19.06,73848.0,6.85,1.37,1.33,0,*7C
1496840530.12,14796,19.06,73842.8,6.87,1.85,1.63,0,*71
1496840531.33,14797,19.06,73844.0,6.85,1.93,1.75,0,*72
1496840532.55,14798,19.06,73844.8,6.87,1.75,1.59,0,*79
1496840533.8,14799,19.06,73842.8,6.87,2.09,1.85,0,*71
1496840535.04,14800,19.06,73844.8,6.87,2.31,2.17,0,*7D
1496840536.3,14801,19.06,73842.0,6.91,2.47,2.13,0,*7E
1496840537.5,14802,19.06,73846.3,6.89,1.75,1.47,0,*74
1496840538.73,14803,19.06,73844.0,6.91,1.55,1.41,0,*78
1496840539.95,14804,19.06,73840.3,6.89,1.63,1.47,0,*75
1496840541.19,14805,19.06,73842.0,6.91,2.05,1.83,0,*76
1496840542.39,14806,19.06,73842.8,6.89,1.79,1.51,0,*7B
1496840543.64,14807,19.06,73844.3,6.91,2.05,1.97,0,*71
1496840544.89,14808,19.06,73842.0,6.91,2.01,1.89,0,*75
1496840546.15,14809,19.06,73844.5,6.91,2.51,2.47,0,*70
1496840547.36,14810,19.06,73844.5,6.91,2.65,2.65,0,*7F
1496840548.59,14811,19.06,73840.0,6.93,2.77,2.77,0,*7C
1496840549.83,14812,19.06,73842.3,6.95,2.77,2.69,0,*76
1496840551.06,14813,19.06,73844.0,6.95,2.69,2.65,0,*74
1496840552.32,14814,19.06,73840.5,6.95,2.43,2.51,0,*7C
1496840553.52,14815,19.06,73842.8,6.99,2.31,2.35,0,*76
1496840554.72,14816,19.06,73842.5,6.97,2.61,2.69,0,*77
1496840555.92,14817,19.06,73840.8,6.97,2.65,2.69,0,*72
1496840557.12,14818,19.06,73842.8,6.97,2.65,2.77,0,*72
1496840558.35,14819,19.06,73840.3,6.99,2.61,2.81,0,*70
1496840559.6,14820,19.06,73844.3,6.99,2.73,2.85,0,*7D
1496840560.82,14821,19.06,73840.8,6.99,2.85,2.95,0,*74
1496840562.05,14822,19.06,73844.3,6.99,2.85,2.99,0,*7B
1496840563.25,14823,19.06,73842.5,7.03,2.95,2.95,0,*75
1496840564.48,14824,19.06,73844.8,7.05,2.51,2.73,0,*74
1496840565.68,14825,19.06,73840.0,7.05,2.61,2.73,0,*76
1496840566.89,14826,19.06,73842.8,7.05,2.39,2.61,0,*7B
1496840568.1,14827,19.06,73842.5,7.05,2.35,2.51,0,*75
1496840569.3,14828,19.06,73842.8,7.05,2.17,2.27,0,*7B
1496840570.5,14829,19.06,73846.3,7.05,2.27,2.47,0,*7F
1496840571.73,14830,19.06,73844.3,7.05,2.73,2.89,0,*74
1496840572.95,14831,19.06,73844.3,7.05,2.73,2.85,0,*79
1496840574.12,14832,19.06,73842.3,7.05,2.95,2.95,0,*73
1496840575.33,14833,19.06,73842.0,7.09,2.99,3.15,0,*7B
1496840576.56,14834,19.06,73842.8,7.07,2.99,3.15,0,*72
1496840577.79,14835,19.06,73842.3,7.09,3.03,3.11,0,*7B
1496840578.99,14836,19.06,73840.5,7.09,3.03,3.25,0,*7F
1496840580.2,14837,19.06,73840.5,7.09,2.91,3.11,0,*73
1496840581.44,14838,19.06,73842.5,7.11,2.69,2.85,0,*7E
1496840582.69,14839,19.06,73842.0,7.11,2.73,2.73,0,*7D
1496840583.91,14840,19.06,73836.0,7.11,2.35,2.55,0,*75
1496840585.15,14841,19.06,73840.3,7.11,2.55,2.69,0,*7D
1496840586.4,14842,19.06,73836.5,7.11,2.43,2.55,0,*76
1496840587.65,14843,19.06,73840.0,7.11,2.55,2.59,0,*7C
1496840588.88,14844,19.06,73840.8,7.09,2.09,2.17,0,*71
1496840590.08,14845,19.06,73840.0,7.09,2.21,2.27,0,*79
1496840591.33,14846,19.06,73838.5,7.07,1.93,2.17,0,*7D
1496840592.52,14847,19.06,73838.3,7.09,2.21,2.31,0,*7C
1496840593.76,14848,19.06,73842.8,7.07,2.17,2.31,0,*78
1496840594.96,14849,19.06,73838.0,7.09,2.17,2.31,0,*77
1496840596.18,14850,19.06,73838.8,7.09,2.55,2.77,0,*7B
1496840597.44,14851,19.06,73840.0,7.07,1.97,2.09,0,*70
1496840598.67,14852,19.06,73840.5,7.07,2.31,2.51,0,*71
1496840599.87,14853,19.06,73842.8,7.09,2.61,2.77,0,*7F
1496840601.08,14854,19.06,73840.0,7.09,2.55,2.61,0,*78
1496840602.28,14855,19.06,73840.0,7.09,2.31,2.39,0,*76
1496840603.54,14856,19.06,73840.8,7.07,2.77,2.89,0,*72
1496840604.71,14857,19.06,73842.3,7.09,2.91,2.91,0,*7C
1496840605.89,14858,19.06,73842.8,7.09,2.91,2.91,0,*73
1496840607.09,14859,19.06,73838.5,7.11,2.91,2.95,0,*7F
1496840608.3,14860,19.06,73838.8,7.09,2.91,3.03,0,*72
1496840609.52,14861,19.06,73840.8,7.11,2.95,3.07,0,*7A
1496840610.77,14862,19.06,73840.5,7.11,3.03,3.03,0,*73
1496840611.95,14863,19.06,73846.3,7.09,2.91,2.99,0,*73
1496840613.16,14864,19.06,73844.3,7.09,2.91,3.03,0,*76
1496840614.39,14865,19.06,73842.0,7.11,2.91,3.03,0,*7E
1496840615.61,14866,19.06,73840.5,7.11,2.81,2.91,0,*76
1496840616.81,14867,19.06,73840.8,7.11,2.91,2.95,0,*72
1496840618.04,14868,19.06,73842.8,7.13,3.07,3.07,0,*7B
1496840619.25,14869,19.06,73838.5,7.13,2.95,3.07,0,*70
1496840620.5,14870,19.06,73842.5,7.11,2.59,2.69,0,*73
1496840621.72,14871,19.06,73842.3,7.13,2.69,2.73,0,*78
1496840622.97,14872,19.06,73840.8,7.11,2.43,2.59,0,*79
1496840624.17,14873,19.06,73840.0,7.13,2.25,2.27,0,*73
1496840625.42,14874,19.06,73842.0,7.11,2.25,2.25,0,*74
1496840626.67,14875,19.06,73842.8,7.11,2.43,2.47,0,*71
1496840627.9,14876,19.06,73840.3,7.13,2.47,2.47,0,*74
1496840629.13,14877,19.06,73842.5,7.13,2.17,2.17,0,*75
1496840630.38,14878,19.06,73840.8,7.11,2.01,2.09,0,*70
1496840631.61,14879,19.06,73840.3,7.11,1.75,1.71,0,*7D
1496840632.85,14880,19.06,73840.5,7.11,2.21,2.21,0,*7F
1496840634.1,14881,19.06,73838.5,7.11,2.59,2.59,0,*7E
1496840635.33,14882,19.06,73840.0,7.09,2.21,2.17,0,*71
1496840636.55,14883,19.06,73840.3,7.09,2.21,2.17,0,*70
1496840637.73,14884,19.06,73840.3,7.09,2.65,2.65,0,*72
1496840638.93,14885,19.06,73842.0,7.09,2.27,2.21,0,*75
1496840640.16,14886,19.06,73840.0,7.09,1.97,1.97,0,*70
1496840641.37,14887,19.06,73842.5,7.09,1.59,1.59,0,*71
1496840642.55,14888,19.06,73842.5,7.09,1.83,1.83,0,*7E
1496840643.8,14889,19.06,73838.0,7.07,2.21,2.17,0,*74
1496840644.98,14890,19.06,73842.8,7.09,1.83,1.83,0,*77
1496840646.23,14891,19.06,73840.0,7.07,2.05,2.09,0,*74
1496840647.43,14892,19.06,73838.0,7.07,2.27,2.27,0,*7B
1496840648.68,14893,19.06,73838.0,7.07,1.71,1.67,0,*7D
1496840649.93,14894,19.06,73836.5,7.07,1.93,1.97,0,*79
1496840651.19,14895,19.06,73842.0,7.07,2.09,2.09,0,*7C
1496840652.44,14896,19.06,73838.3,7.03,2.01,2.01,0,*7B
1496840653.62,14897,19.13,73842.5,7.05,1.83,1.79,0,*79
1496840654.79,14898,19.06,73838.3,7.05,1.83,1.75,0,*7A
1496840656.01,14899,19.06,73840.3,7.05,2.01,1.93,0,*7A
1496840657.24,14900,19.06,73842.0,7.05,2.01,2.01,0,*73
1496840658.46,14901,19.06,73842.5,7.05,1.89,1.93,0,*79
1496840659.66,14902,19.06,73840.5,7.03,1.75,1.75,0,*77
1496840660.86,14903,19.06,73840.3,7.03,1.41,1.41,0,*76
1496840662.12,14904,19.06,73840.8,7.03,1.09,1.09,0,*71
1496840663.36,14905,19.06,73840.0,7.03,1.43,1.43,0,*70
1496840664.59,14906,19.06,73842.0,6.97,1.25,1.37,0,*7C
1496840665.82,14907,19.06,73842.3,6.97,1.37,1.43,0,*7D
1496840667.04,14908,19.06,73840.0,6.97,1.33,1.43,0,*76
1496840668.27,14909,19.06,73842.3,6.97,1.37,1.55,0,*74
1496840669.52,14910,19.06,73840.8,6.95,1.43,1.67,0,*7C
1496840670.78,14911,19.06,73842.8,6.95,1.37,1.55,0,*7F
1496840671.98,14912,19.06,73844.3,6.93,1.29,1.41,0,*70
1496840673.2,14913,19.06,73846.3,6.93,0.95,1.17,0,*44
1496840674.43,14914,19.06,73840.3,6.93,1.09,1.33,0,*71
1496840675.67,14915,19.06,73846.3,6.89,1.13,1.29,0,*7B
1496840676.9,14916,19.06,73840.8,6.89,1.13,1.29,0,*78
1496840678.14,14917,19.06,73838.5,6.89,1.37,1.51,0,*70
1496840679.34,14918,19.06,73842.0,6.89,1.59,1.75,0,*71
1496840680.55,14919,19.06,73846.5,6.89,1.79,1.85,0,*7D
1496840681.77,14920,19.06,73844.5,6.85,1.59,1.63,0,*71
1496840682.99,14921,19.06,73842.3,6.85,1.59,1.59,0,*79
1496840684.24,14922,19.06,73846.0,6.87,0.87,0.75,0,*75
1496840685.43,14923,19.06,73842.3,6.85,0.83,0.97,0,*7E
1496840686.67,14924,19.06,73840.3,6.83,1.21,1.21,0,*7A
1496840687.86,14925,19.06,73840.8,6.83,1.41,1.43,0,*79
1496840689.12,14926,19.06,73840.5,6.81,1.21,1.29,0,*72
1496840690.36,14927,19.06,73840.5,6.81,1.59,1.67,0,*76
1496840691.61,14928,19.06,73844.0,6.81,1.55,1.55,0,*74
1496840692.84,14929,19.06,73842.8,6.79,1.85,1.85,0,*72
1496840694.06,14930,19.06,73842.8,6.79,0.83,0.91,0,*79
1496840695.26,14931,19.06,73844.0,6.79,1.13,1.01,0,*78
1496840696.43,14932,19.06,73842.0,6.75,-0.07,-0.07,0,*74
1496840697.65,14933,19.06,73842.5,6.75,0.47,0.47,0,*75
1496840698.83,14934,19.06,73842.5,6.71,1.05,1.05,0,*76
1496840700.09,14935,19.06,73842.3,6.73,1.25,1.17,0,*74
1496840701.31,14936,19.06,73840.3,6.71,0.55,0.47,0,*77
1496840702.51,14937,19.06,73842.0,6.69,-0.19,-0.29,0,*7F
1496840703.7,14938,19.06,73836.8,6.63,-0.37,-0.49,0,*70
1496840704.88,14939,19.06,73836.8,6.63,0.17,0.05,0,*4B
1496840706.07,14940,19.06,73838.3,6.63,-0.33,-0.33,0,*76
1496840707.3,14941,19.06,73840.8,6.61,-0.23,-0.15,0,*70
1496840708.52,14942,19.06,73840.3,6.59,-0.27,-0.11,0,*78
1496840709.75,14943,19.06,73836.8,6.53,0.37,0.29,0,*79
1496840710.99,14944,19.06,73838.5,6.53,0.51,0.63,0,*70
1496840712.25,14945,19.06,73840.8,6.51,0.91,0.91,0,*72
1496840713.51,14946,19.06,73838.8,6.51,1.21,1.21,0,*71
1496840714.75,14947,19.06,73840.5,6.51,1.37,1.41,0,*71
1496840715.94,14948,19.06,73842.5,6.51,1.01,0.97,0,*41
1496840717.15,14949,19.06,73840.8,6.49,1.05,0.87,0,*4C
1496840718.38,14950,19.06,73842.5,6.51,1.01,0.87,0,*49
1496840719.6,14951,19.06,73840.3,6.49,0.83,0.75,0,*77
1496840720.84,14952,19.06,73842.3,6.47,0.83,0.79,0,*76
1496840722.08,14953,19.06,73844.0,6.47,0.47,0.47,0,*72
1496840723.29,14954,19.06,73840.3,6.45,0.67,0.55,0,*76
1496840724.5,14955,19.06,73840.3,6.45,0.67,0.41,0,*72
1496840725.7,14956,19.06,73840.0,6.45,0.33,0.17,0,*73
1496840726.93,14957,19.06,73840.5,6.43,0.37,0.25,0,*71
1496840728.15,14958,19.06,73840.3,6.43,0.25,0.01,0,*4B
1496840729.32,14959,19.06,73842.0,6.41,0.01,-0.11,0,*62
1496840730.5,14960,19.06,73840.3,6.41,0.13,0.01,0,*47
1496840731.72,14961,19.06,73842.3,6.41,0.67,0.55,0,*74
1496840732.93,14962,19.06,73838.8,6.37,0.47,0.47,0,*77
1496840734.14,14963,19.06,73836.5,6.39,1.05,1.05,0,*78
1496840735.4,14964,19.06,73836.0,6.39,1.33,1.33,0,*7F
1496840736.66,14965,19.06,73838.5,6.39,1.25,1.37,0,*7D
1496840737.92,14966,19.06,73840.5,6.39,1.55,1.71,0,*7B
1496840739.14,14967,19.06,73842.0,6.43,1.13,1.41,0,*76
1496840740.4,14968,19.06,73842.0,6.43,1.25,1.37,0,*7D
1496840741.63,14969,19.06,73840.0,6.41,1.25,1.37,0,*7E
1496840742.87,14970,19.06,73842.8,6.41,1.13,1.17,0,*71
1496840744.1,14971,19.06,73842.0,6.41,1.17,1.13,0,*70
1496840745.35,14972,19.06,73842.5,6.43,1.47,1.47,0,*75
1496840746.57,14973,19.06,73840.0,6.41,1.51,1.47,0,*71
1496840747.79,14974,19.06,73840.0,6.41,1.59,1.51,0,*79
1496840749.02,14975,19.06,73842.8,6.41,1.71,1.71,0,*70
1496840750.2,14976,19.06,73842.5,6.41,1.83,1.83,0,*73
1496840751.42,14977,19.06,73840.8,6.41,2.13,2.21,0,*73
1496840752.67,14978,19.06,73842.0,6.43,2.09,2.21,0,*75
1496840753.92,14979,19.06,73842.0,6.43,2.21,2.25,0,*7A
1496840755.17,14980,19.06,73840.3,6.43,1.93,1.97,0,*7C
1496840756.41,14981,19.06,73838.5,6.43,1.93,1.93,0,*79
1496840757.64,14982,19.06,73842.0,6.43,1.83,1.85,0,*7C
1496840758.9,14983,19.06,73840.8,6.43,1.97,2.01,0,*77
1496840760.15,14984,19.06,73842.0,6.43,2.01,1.97,0,*70
1496840761.4,14985,19.06,73842.0,6.43,1.93,1.85,0,*7A
1496840762.65,14986,19.06,73840.8,6.43,1.63,1.71,0,*7D
1496840763.87,14987,19.06,73842.3,6.45,1.67,1.55,0,*78
1496840765.07,14988,19.06,73842.5,6.45,1.67,1.79,0,*79
1496840766.3,14989,19.06,73842.0,6.45,2.13,2.13,0,*77
1496840767.53,14990,19.06,73840.0,6.45,2.13,2.17,0,*7B
1496840768.72,14991,19.06,73840.8,6.45,2.25,2.27,0,*7C
1496840769.92,14992,19.06,73840.3,6.45,2.25,2.27,0,*7F
1496840771.17,14993,19.06,73844.5,6.47,1.89,2.01,0,*7D
1496840772.42,14994,19.06,73844.0,6.47,1.97,2.01,0,*75
1496840773.67,14995,19.06,73840.0,6.47,1.85,1.89,0,*74
1496840774.85,14996,19.06,73842.5,6.45,1.79,1.79,0,*79
1496840776.08,14997,19.06,73842.8,6.45,2.25,2.17,0,*79
1496840777.3,14998,19.06,73844.5,6.45,2.25,2.13,0,*72
1496840778.53,14999,19.06,73840.5,6.45,2.25,2.25,0,*76
1496840779.78,15000,19.06,73844.5,6.47,2.25,2.17,0,*7D
1496840781.0,15001,19.06,73840.3,6.45,2.05,1.97,0,*77
1496840782.25,15002,19.06,73842.0,6.47,2.01,1.97,0,*72
1496840783.47,15003,19.06,73842.3,6.45,2.01,1.89,0,*7E
1496840784.69,15004,19.06,73846.0,6.45,1.55,1.51,0,*7E
1496840785.9,15005,19.06,73840.8,6.45,1.63,1.75,0,*7C
1496840787.13,15006,19.06,73840.3,6.45,2.17,2.17,0,*78
1496840788.33,15007,19.06,73846.3,6.45,2.25,2.35,0,*78
1496840789.56,15008,19.06,73842.3,6.47,1.85,1.79,0,*77
1496840790.82,15009,19.06,73846.3,6.47,1.97,1.85,0,*76
1496840792.07,15010,19.06,73844.3,6.47,1.63,1.55,0,*78
1496840793.33,15011,19.06,73846.8,6.47,1.13,1.13,0,*7C
1496840794.55,15012,19.06,73842.8,6.45,1.63,1.51,0,*7C
1496840795.77,15013,19.06,73846.3,6.45,1.55,1.43,0,*7B
1496840796.99,15014,19.06,73844.0,6.45,1.67,1.51,0,*7E
1496840798.23,15015,19.06,73844.5,6.45,1.29,1.29,0,*7A
1496840799.45,15016,19.06,73842.3,6.45,1.17,1.17,0,*79
1496840800.69,15017,19.06,73844.5,6.45,1.13,1.33,0,*7A
1496840801.92,15018,19.06,73844.0,6.45,1.21,1.21,0,*77
1496840803.16,15019,19.06,73844.5,6.45,1.21,1.17,0,*73
1496840804.4,15020,19.06,73846.0,6.47,0.79,0.79,0,*7E
1496840805.6,15021,19.06,73844.5,6.45,1.21,1.41,0,*7B
1496840806.83,15022,19.06,73844.8,6.45,1.29,1.29,0,*7E
1496840808.09,15023,19.06,73846.0,6.43,0.91,0.87,0,*7E
1496840809.31,15024,19.06,73846.3,6.41,0.91,1.17,0,*43
1496840810.56,15025,19.06,73842.0,6.43,1.51,1.59,0,*77
1496840811.78,15026,19.06,73840.3,6.43,1.41,1.47,0,*7A
1496840812.96,15027,19.06,73842.0,6.41,1.75,1.75,0,*7F
1496840814.18,15028,19.06,73844.0,6.43,1.83,1.93,0,*73
1496840815.41,15029,19.06,73842.0,6.43,2.31,2.25,0,*76
1496840816.66,15030,19.06,73846.3,6.43,1.71,1.71,0,*7B
1496840817.91,15031,19.06,73844.5,6.43,1.51,1.51,0,*7A
1496840819.16,15032,19.06,73842.8,6.43,2.13,2.21,0,*78
1496840820.38,15033,19.06,73846.0,6.45,2.13,2.17,0,*7A
1496840821.58,15034,19.06,73844.5,6.45,2.25,2.27,0,*7B
1496840822.79,15035,19.06,73844.0,6.45,2.17,2.27,0,*7B
1496840824.0,15036,19.06,73844.0,6.45,1.89,1.89,0,*7B
1496840825.2,15037,19.06,73848.0,6.45,1.67,1.75,0,*79
1496840826.43,15038,19.06,73846.0,6.45,1.21,1.29,0,*7D
1496840827.66,15039,19.06,73842.0,6.45,1.13,1.13,0,*74
1496840828.89,15040,19.06,73844.5,6.45,1.33,1.43,0,*7D
1496840830.12,15041,19.06,73846.8,6.41,1.09,1.13,0,*74
1496840831.34,15042,19.06,73846.5,6.41,0.63,0.75,0,*7B
1496840832.56,15043,19.06,73846.8,6.41,0.63,0.75,0,*7A
1496840833.79,15044,19.06,73844.0,6.41,1.25,1.37,0,*79
1496840835.03,15045,19.06,73844.5,6.41,1.21,1.37,0,*7C
1496840836.26,15046,19.06,73842.8,6.41,1.37,1.47,0,*7F
1496840837.52,15047,19.06,73844.0,6.39,1.37,1.47,0,*71
1496840838.78,15048,19.06,73844.8,6.39,1.21,1.43,0,*7D
1496840840.03,15049,19.06,73842.3,6.39,1.25,1.43,0,*78
1496840841.28,15050,19.06,73844.8,6.39,1.47,1.71,0,*75
1496840842.51,15051,19.06,73842.8,6.41,1.37,1.51,0,*7E
1496840843.74,15052,19.06,73844.0,6.41,1.09,1.25,0,*73
1496840844.94,15053,19.06,73844.8,6.41,1.41,1.47,0,*7A
1496840846.19,15054,19.06,73840.5,6.43,1.25,1.29,0,*75
1496840847.41,15055,19.06,73844.3,6.41,1.47,1.59,0,*75
1496840848.65,15056,19.06,73846.0,6.41,1.85,1.85,0,*79
1496840849.89,15057,19.06,73844.8,6.43,1.59,1.71,0,*70
1496840851.15,15058,19.06,73846.3,6.43,1.17,1.25,0,*74
1496840852.41,15059,19.06,73844.5,6.43,1.13,1.17,0,*70
1496840853.64,15060,19.06,73844.0,6.41,1.17,1.25,0,*7D
1496840854.84,15061,19.06,73846.8,6.41,1.41,1.47,0,*7B
1496840856.07,15062,19.06,73844.3,6.41,1.97,1.97,0,*7E
1496840857.3,15063,19.06,73844.5,6.41,2.13,2.13,0,*7F
1496840858.53,15064,19.06,73842.3,6.43,1.83,1.85,0,*7C
1496840859.78,15065,19.06,73848.0,6.43,2.13,2.13,0,*7B
1496840861.03,15066,19.06,73844.0,6.43,2.25,2.21,0,*7C
1496840862.29,15067,19.06,73842.3,6.43,2.25,2.13,0,*7C
1496840863.52,15068,19.06,73846.8,6.47,2.27,2.13,0,*75
1496840864.75,15069,19.06,73846.8,6.47,2.35,2.17,0,*73
1496840865.98,15070,19.06,73844.0,6.49,2.17,2.01,0,*72
1496840867.21,15071,19.06,73842.5,6.49,2.17,1.89,0,*70
1496840868.46,15072,19.06,73844.0,6.47,1.97,1.67,0,*76
1496840869.66,15073,19.06,73846.5,6.49,1.83,1.67,0,*7C
1496840870.91,15074,19.06,73846.3,6.51,1.97,1.63,0,*73
1496840872.14,15075,19.06,73844.0,6.49,1.71,1.59,0,*7A
1496840873.36,15076,19.06,73846.0,6.49,1.93,1.71,0,*7F
1496840874.61,15077,19.06,73844.3,6.51,1.93,1.63,0,*74
1496840875.84,15078,19.06,73846.3,6.51,1.75,1.59,0,*7A
1496840877.09,15079,19.06,73844.3,6.51,1.85,1.59,0,*74
1496840878.34,15080,19.06,73846.5,6.51,1.59,1.29,0,*74
1496840879.56,15081,19.06,73846.5,6.51,1.83,1.59,0,*75
1496840880.79,15082,19.06,73844.5,6.53,1.75,1.63,0,*74
1496840882.04,15083,19.06,73846.5,6.57,1.67,1.55,0,*77
1496840883.26,15084,19.06,73842.8,6.53,1.75,1.71,0,*71
1496840884.51,15085,19.06,73840.5,6.53,2.09,2.05,0,*78
1496840885.76,15086,19.06,73842.8,6.53,2.05,1.93,0,*7B
1496840886.99,15087,19.06,73842.5,6.57,1.79,1.67,0,*7D
1496840888.24,15088,19.06,73840.5,6.57,2.01,1.89,0,*7E
1496840889.47,15089,19.06,73840.3,6.59,2.13,2.05,0,*75
1496840890.7,15090,19.06,73842.8,6.59,2.05,2.01,0,*7E
1496840891.94,15091,19.06,73842.3,6.59,2.17,2.13,0,*7F
1496840893.19,15092,19.06,73846.3,6.61,2.01,1.93,0,*7B
1496840894.45,15093,19.06,73844.5,6.61,1.71,1.67,0,*75
1496840895.67,15094,19.06,73844.5,6.63,1.97,1.97,0,*77
1496840896.9,15095,19.06,73840.0,6.63,1.97,1.97,0,*76
1496840898.13,15096,19.06,73844.0,6.63,2.09,2.09,0,*75
1496840899.36,15097,19.06,73840.5,6.63,2.17,2.09,0,*7B
1496840900.62,15098,19.06,73840.8,6.65,2.09,2.05,0,*71
1496840901.87,15099,19.06,73840.5,6.65,2.25,2.25,0,*7C
1496840903.12,15100,19.06,73846.0,6.65,1.93,1.85,0,*7A
1496840904.35,15101,19.06,73840.3,6.67,2.09,2.01,0,*76
1496840905.58,15102,19.06,73844.0,6.67,2.09,1.97,0,*79
1496840906.83,15103,19.06,73842.0,6.69,2.13,2.01,0,*71
1496840908.06,15104,19.06,73840.3,6.67,2.01,1.89,0,*78
1496840909.28,15105,19.06,73840.3,6.67,2.13,1.97,0,*75
1496840910.52,15106,19.06,73840.5,6.71,2.17,2.01,0,*79
1496840911.75,15107,19.06,73842.0,6.71,2.17,2.01,0,*78
1496840912.95,15108,19.06,73842.3,6.71,2.05,1.83,0,*7D
1496840914.21,15109,19.06,73844.5,6.73,2.09,1.85,0,*74
1496840915.44,15110,19.06,73842.8,6.73,2.31,2.17,0,*7F
1496840916.65,15111,19.06,73842.0,6.71,2.27,2.13,0,*7F
1496840917.87,15112,19.06,73842.8,6.73,2.27,2.05,0,*79
1496840919.1,15113,19.06,73842.3,6.71,2.39,2.25,0,*77
1496840920.33,15114,19.06,73842.3,6.73,2.35,2.21,0,*7A
1496840921.56,15115,19.06,73840.5,6.75,2.09,1.85,0,*7F
1496840922.77,15116,19.06,73842.5,6.79,2.13,1.89,0,*77
1496840923.98,15117,19.06,73844.5,6.75,2.05,1.83,0,*77
1496840925.2,15118,19.06,73842.0,6.75,2.21,1.93,0,*7F
1496840926.4,15119,19.06,73842.0,6.75,2.31,2.09,0,*7F
1496840927.62,15120,19.06,73846.8,6.79,2.25,2.01,0,*74
1496840928.85,15121,19.06,73844.0,6.83,2.25,1.93,0,*78
1496840930.07,15122,19.06,73844.8,6.81,2.27,2.05,0,*77
1496840931.3,15123,19.06,73840.5,6.81,2.27,2.13,0,*71
1496840932.52,15124,19.06,73844.5,6.85,2.47,2.21,0,*75
1496840933.73,15125,19.06,73840.0,6.83,2.27,2.05,0,*72
1496840934.94,15126,19.06,73840.0,6.83,2.05,1.89,0,*76